Location: Vancouver
(49.2500°N, 123.1330°W)
Time: 21:13:36
(UTC-07:00)

YAOGAN 6 - Pass Details

Date: 28 February 2018
Orbit: 466 x 508 km, 97.1° (Epoch: 22 June)

Event Time Altitude Azimuth Distance (km) Brightness Sun altitude
Exits shadow 21:09:07 15° 271° (W) 1,395 5.5 -31.7°
Drops below altitude 10° 21:11:08 10° 306° (NW) 1,669 6.1 -32.0°
Sets 21:13:57 0° 331° (NNW) 2,545 7.0 -32.4°
